THOR ABLESTAR DEB, 324

Orbit data source: Space-Track

THOR ABLESTAR DEB, 324 is space debris in LEO originally from a launch on Thu, 29 Jun 1961 UTC launched from the Air Force Eastern Test Range (AFETR). Debris objects in space refer to the collection of defunct objects orbiting the Earth. Examples of debris include non-operational satellites, rocket bodies, and fragments generated from explosions, collisions, or faulty payload assembly.

Loading next visibility...
Identifier
324, 1961-015DA
Orbit
LEO
Country
Flag of USUS
Related business
Manufacturer
Unknown
Mission
Spacecraft
Bus & Motor
Unknown
Mass
Unknown
Launch date (UTC)
1961-06-29 (64 years ago)
Launch vehicle
Unknown
Launch site
Air Force Eastern Test Range (AFETR)
Object type
Payload
Rocket body
Debris
Shape & HBR
Unknown
Radar Cross Section
Small (<0.1 m²)

Expand to show TLE details & history
Last TLE update: 21 hours ago

TLE from 21 hours ago
0 THOR ABLESTAR DEB
1 00324U 61015DA  25258.26094694  .00000948  00000-0  53719-3 0  9993
2 00324  66.8682   5.9264 0073154 234.0080 125.4214 14.12985748284226
Epoch: 2025-09-15T06:15Z
TLE epoch observation values (Epoch: 2025-09-15T06:15:45.815Z)
Latitude
-0.00003°
Longitude
-82.48265°
Altitude
882.177 km
Speed
7.396 km/s
True Right ascension
00h 23m 42s
True Declination
0° 00' 00"
Sunlit
Object was in full shadow at epoch
Visualization orbit readout
Latitude
Unknown
Longitude
Unknown
Altitude
Unknown
Speed
Unknown
Apparent Right ascension
Unknown
Apparent Declination
Unknown
Sunlit
N/A
Visualization observer readout
Local Sidereal Time
20:19:45
Azimuth
Unknown
Elevation
Unknown
Doppler factor
Unknown
Orbital elements
Apogee altitude
900.4 km
Perigee altitude
794.682 km
Semi-major axis
7,225.678 km
Eccentricity
0.00732
Inclination
66.8682°
RAAN
5.9264°
Arg. of periapsis
234.008°
True anomaly
126.10091°
Mean anomaly
125.4214°
Eccentric anomaly
125.76152°
Mean motion
3.53366 °/min
Orbital period
101.88 mins
BSTAR
0.00053719
Loading maneuver chart data...
Computing Atmospheric mass density...

Documentation

Showing up to 5 results
|